Home > Time Zones > World Clock > Weather > Ghana > Accra > Past weeks

Flag for Ghana Weather past 2 weeks in Accra, Ghana

Now
79 °F

Scattered clouds.


Feels Like: 82 °F
Forecast: 76 / 84 °F
Wind: 18 mph from Southwest

Location: Accra Airport

Current Time: Aug 29, 2015 at 5:56:37 PM

Latest Report: Aug 29, 2015 at 5:00 PM


Visibility: N/A

Pressure: 29.92 "Hg

Humidity: 84%

Dew point: 73 °F

Location of AccraLocation

Historic Weather in Accra — Graph

°F

Accra temperature yesterday

Maximum temperature yesterday: 84 °F (at 12:00 PM)
Minimum temperature yesterday: 75 °F (at 12:00 AM)
Average temperature yesterday: 79 °F

Past Weeks' High & Low Weather Summary

 TemperatureHumidityPressure
High84 °F (Aug 23, 12:00 PM)94% (Aug 15, 4:52 AM)30.04 "Hg (Aug 15, 4:52 AM)
Low73 °F (Aug 17, 5:00 AM)66% (Aug 23, 12:00 PM)29.83 "Hg (Aug 23, 3:00 PM)
Average78 °F84%29.93 "Hg
* Reported Aug 14 3:00 PM — Aug 29 3:00 PM, Accra, Weather by CustomWeather, © 2015

Note: Actual official high and low records may vary slightly from our data, if they occured in-between our weather recording intervals... More about our weather records

Advertising

Accra weather history for previous 24 hours

 ConditionsComfort  
Time TempWeatherWind HumidityBarometerVisibility
3:00 PM
Sat, Aug 29
81 °FScattered clouds.18 mph79%29.95 "HgN/A
2:00 PM82 °FPassing clouds.20 mph74%29.95 "HgN/A
1:00 PM81 °FScattered clouds.18 mph79%30.01 "HgN/A
12:00 PM82 °FPartly sunny.17 mph74%30.01 "HgN/A
10:00 AM81 °FMore clouds than sun.16 mph74%30.04 "HgN/A
9:00 AM79 °FMostly cloudy.14 mph79%30.04 "HgN/A
8:00 AM77 °FPartly sunny.12 mph89%30.01 "HgN/A
7:00 AM75 °FBroken clouds.12 mph89%29.98 "HgN/A
6:00 AM75 °FPartly sunny.9 mph94%29.98 "HgN/A
5:00 AM75 °FMostly cloudy.8 mph94%29.95 "HgN/A
4:00 AM77 °FPassing clouds.13 mph89%29.92 "HgN/A
3:00 AM77 °FOvercast.12 mph83%29.92 "HgN/A
2:00 AM77 °FPassing clouds.8 mph83%29.92 "HgN/A
1:00 AM77 °FMostly cloudy.10 mph83%29.95 "HgN/A
12:00 AM77 °FMostly cloudy.10 mph89%29.95 "HgN/A
11:00 PM
Fri, Aug 28
77 °FPassing clouds.12 mph89%29.95 "HgN/A
10:00 PM77 °FPassing clouds.12 mph89%29.95 "HgN/A
9:00 PM77 °FPassing clouds.14 mph89%29.95 "HgN/A
8:00 PM77 °FMostly cloudy.14 mph89%29.92 "HgN/A
7:00 PM77 °FPassing clouds.18 mph83%29.89 "HgN/A
6:00 PM77 °FPartly sunny.18 mph89%29.89 "HgN/A
5:00 PM79 °FPartly sunny.18 mph84%29.86 "HgN/A
Weather by CustomWeather, © 2015

See weather overviewHow to use our weather pages